DateTimeUTC,F1_A11,F1_S11,BsB_S11,BsG_S11,BsR_S11,BbsB_S11,BbsG_S11,BbsR_S11,BaB_A11,BaG_A11,BaR_A11,Tu_S11,T_S11,Uu_S11,U_S11,P_S11,T1_A11
2021-05-12T08:00:00Z,00000200,21000000,,,,,,,-000.27,0000.44,0000.19,16.3,23.5,,00.0,0668.0,30.9
2021-05-12T08:01:00Z,00000200,21000000,,,,,,,0000.07,-000.01,-000.13,16.3,23.6,,00.0,0668.0,30.9
2021-05-12T08:02:00Z,00000200,21000000,,,,,,,0000.34,-000.02,0000.28,16.3,23.6,,00.0,0668.0,30.9
2021-05-12T08:03:00Z,00000200,61000000,,,,,,,0000.15,0000.12,0000.25,16.3,23.6,,00.0,0668.0,30.9
2021-05-12T08:04:00Z,00000200,41000000,0001.39,0001.47,0001.00,0000.47,0000.00,0000.34,0000.99,0001.02,0000.52,16.6,23.5,,00.0,0668.9,30.9
2021-05-12T08:05:00Z,00000200,01000000,0002.19,0001.41,0000.95,0000.75,0000.24,0000.24,0003.88,0003.87,0003.23,16.6,23.4,,00.0,0668.9,30.9
2021-05-12T08:06:00Z,00000200,01000000,0002.26,0001.36,0000.56,0000.32,0000.09,-000.02,-001.24,-001.47,-001.20,16.5,23.3,,00.0,0668.9,30.9
2021-05-12T08:07:00Z,00000200,01000000,0002.42,0001.29,0000.93,0000.15,0000.24,0000.05,0000.78,0000.47,0000.42,16.5,23.3,,00.0,0668.9,30.9
2021-05-12T08:08:00Z,00000200,01000000,0001.51,0001.45,0000.48,-000.15,0000.43,0000.26,0000.37,0000.50,0000.12,16.4,23.2,,00.0,0668.9,30.9
2021-05-12T08:09:00Z,00000200,01000000,0001.74,0001.10,0001.02,0000.47,0000.14,0000.46,0002.55,0002.37,0002.01,16.4,23.2,,00.0,0668.8,30.9
2021-05-12T08:10:00Z,00000200,01000000,0001.33,0001.49,0000.79,-000.08,-000.00,-000.06,-000.29,-000.11,-000.25,16.3,23.2,,00.0,0668.9,30.9
2021-05-12T08:11:00Z,00000200,01000000,0002.15,0001.06,0000.46,0000.17,0000.11,-000.01,0000.43,0000.31,0000.16,16.3,23.2,,00.0,0668.9,30.9
2021-05-12T08:12:00Z,00000200,01000000,0002.00,0001.42,0000.55,0000.10,0000.11,0000.19,0000.61,0000.51,0000.66,16.4,23.2,,00.0,0668.9,30.9
2021-05-12T08:13:00Z,00000200,01000000,0002.13,0001.37,0000.64,-000.07,0000.19,0000.19,0001.47,0001.45,0001.33,16.4,23.2,,00.0,0668.8,30.9
2021-05-12T08:14:00Z,00000200,01000000,0001.76,0001.30,0000.82,0000.04,0000.31,0000.09,0000.19,0000.40,-000.19,16.5,23.2,,00.0,0668.8,30.9
2021-05-12T08:15:00Z,00000200,01000000,0001.85,0001.56,0000.49,0000.46,0000.04,0000.14,0000.81,0000.58,0000.28,16.5,23.3,,00.0,0668.8,30.9
2021-05-12T08:16:00Z,00000200,01000000,0001.46,0001.41,0000.62,0000.45,0000.17,0000.22,0000.87,0000.74,0000.75,16.6,23.3,,00.0,0668.8,30.9
2021-05-12T08:17:00Z,00000200,01000000,0001.41,0001.26,0000.58,0000.45,0000.12,0000.18,0000.69,0000.29,0000.34,16.6,23.3,,00.0,0668.8,30.9
2021-05-12T08:18:00Z,00000200,01000000,0001.64,0001.23,0000.60,0000.31,0000.29,0000.32,0000.62,0000.81,0000.41,16.5,23.3,,00.0,0668.8,30.9
2021-05-12T08:19:00Z,00000200,01000000,0002.02,0001.06,0000.84,0000.38,0000.04,0000.35,0000.39,0000.36,0000.44,16.5,23.2,,00.0,0668.8,30.9
2021-05-12T08:20:00Z,00000200,01000000,0002.34,0001.46,0000.59,0000.16,0000.32,0000.20,0000.84,0000.07,0000.49,16.5,23.2,,00.0,0668.8,30.9
2021-05-12T08:21:00Z,00000200,01000000,0001.94,0001.41,0000.71,0000.38,0000.27,0000.09,0004.47,0004.57,0003.68,16.4,23.2,,00.0,0668.8,30.9
2021-05-12T08:22:00Z,00000200,01000000,0001.76,0001.50,0001.03,0000.41,0000.21,0000.23,-001.40,-000.81,-001.43,16.3,23.1,,00.0,0668.8,30.8
2021-05-12T08:23:00Z,00000200,01000000,0001.68,0001.20,0000.77,0000.22,0000.00,0000.15,0000.14,-000.51,0000.06,16.3,23.1,,00.0,0668.8,30.8
2021-05-12T08:24:00Z,00000200,01000000,0001.81,0001.30,0000.85,0000.25,0000.05,0000.19,0000.18,0000.39,0000.18,16.2,23.1,,00.0,0668.8,30.8
2021-05-12T08:25:00Z,00000200,01000000,0002.00,0001.26,0000.40,0000.21,0000.36,0000.08,0000.35,0000.33,0000.25,16.2,23.0,,00.0,0668.8,30.8
2021-05-12T08:26:00Z,00000200,01000000,0002.17,0001.18,0000.85,0000.58,0000.34,0000.47,0001.67,0001.80,0001.22,16.2,23.0,,00.0,0668.8,30.8
2021-05-12T08:27:00Z,00000200,01000000,0001.58,0001.49,0000.89,0000.13,0000.36,0000.07,0000.25,-000.14,-000.14,16.3,23.0,,00.0,0668.8,30.9
2021-05-12T08:28:00Z,00000200,01000000,0002.00,0001.44,0000.99,0000.09,0000.12,0000.31,0001.71,0001.72,0001.56,16.3,23.1,,00.0,0668.8,30.9
2021-05-12T08:29:00Z,00000200,01000000,0001.77,0001.34,0000.64,-000.11,0000.17,0000.09,0001.21,0001.12,0000.76,16.4,23.1,,00.0,0668.8,30.9
2021-05-12T08:30:00Z,00000200,01000000,0002.26,0000.98,0000.79,-000.20,0000.21,-000.06,-000.38,-000.39,0000.03,16.5,23.1,,00.0,0668.8,30.9
2021-05-12T08:31:00Z,00000200,01000000,0001.74,0001.41,0000.67,0000.85,0000.12,0000.37,0000.83,0000.96,0000.66,16.5,23.2,,00.0,0668.8,30.9
2021-05-12T08:32:00Z,00000200,01000000,0001.82,0001.79,0000.67,0000.52,0000.36,0000.18,0001.03,0000.66,0000.18,16.5,23.2,,00.0,0668.8,30.9
2021-05-12T08:33:00Z,00000200,01000000,0002.37,0001.39,0000.60,0000.01,0000.34,-000.18,0000.48,0000.58,0000.53,16.5,23.2,,00.0,0668.8,30.9
2021-05-12T08:34:00Z,00000200,01000000,0001.65,0001.26,0000.65,0000.33,0000.18,-000.06,0000.94,0000.68,0000.40,16.5,23.2,,00.0,0668.8,30.9
2021-05-12T08:35:00Z,00000200,01000000,0001.53,0001.33,0000.76,-000.29,0000.05,0000.31,0000.60,0000.73,0000.89,16.4,23.1,,00.0,0668.8,30.9
2021-05-12T08:36:00Z,00000200,01000000,0002.36,0001.32,0000.95,0000.05,0000.11,0000.09,0000.67,0000.82,0000.30,16.4,23.1,,00.0,0668.8,30.9
2021-05-12T08:37:00Z,00000200,01000000,0001.61,0001.30,0001.00,0000.35,0000.28,0000.32,0001.17,0001.06,0000.54,16.3,23.1,,00.0,0668.8,30.8
2021-05-12T08:38:00Z,00000200,01000000,0001.68,0001.44,0000.48,0000.55,0000.06,0000.26,0001.39,0000.81,0001.12,16.3,23.0,,00.0,0668.8,30.8
2021-05-12T08:39:00Z,00000200,01000000,0002.57,0001.13,0000.58,0001.08,0000.28,0000.34,0000.61,0000.64,0000.25,16.2,23.0,,00.0,0668.8,30.8
2021-05-12T08:40:00Z,00000200,01000000,0001.67,0001.55,0000.59,0000.22,0000.12,-000.06,0000.63,0000.98,0000.54,16.2,23.0,,00.0,0668.8,30.8
2021-05-12T08:41:00Z,00000200,01000000,0002.03,0001.19,0000.57,0000.09,0000.44,0000.14,0000.52,0000.70,0000.57,16.2,23.0,,00.0,0668.8,30.8
2021-05-12T08:42:00Z,00000200,01000000,0001.56,0001.05,0000.85,0000.10,0000.33,0000.41,0000.92,0000.38,0000.54,16.2,23.0,,00.0,0668.8,30.9
2021-05-12T08:43:00Z,00000200,01000000,0002.76,0001.16,0000.92,0000.23,0000.33,0000.03,0000.77,0000.80,0000.75,16.3,23.0,,00.0,0668.8,30.9
2021-05-12T08:44:00Z,00000200,01000000,0002.49,0001.16,0000.70,0000.29,0000.17,0000.36,0000.59,0000.70,0000.34,16.3,23.1,,00.0,0668.8,30.9
2021-05-12T08:45:00Z,00000200,01000000,0001.73,0001.11,0000.70,0000.34,0000.27,0000.35,0000.74,0000.50,0000.48,16.4,23.1,,00.0,0668.8,30.9
2021-05-12T08:46:00Z,00000200,01000000,0002.13,0001.17,0000.65,0000.30,0000.03,-000.03,0000.75,0000.80,0000.46,16.4,23.1,,00.0,0668.8,30.9
2021-05-12T08:47:00Z,00000200,01000000,0001.74,0001.38,0000.66,-000.04,0000.31,-000.06,0001.23,0000.81,0000.73,16.3,23.1,,00.0,0668.8,30.9
2021-05-12T08:48:00Z,00000200,01000000,0001.66,0001.46,0000.72,0000.65,0000.41,0000.21,0000.36,0000.68,0000.40,16.3,23.0,,00.0,0668.8,30.8
2021-05-12T08:49:00Z,00000200,01000000,0001.63,0001.36,0000.80,0000.27,0000.13,0000.19,0001.00,0000.40,0000.33,16.2,23.0,,00.0,0668.8,30.8
2021-05-12T08:50:00Z,00000200,01000000,0002.57,0001.22,0000.82,0000.10,0000.29,0000.27,0000.40,0000.76,0000.50,16.2,23.0,,00.0,0668.8,30.8
2021-05-12T08:51:00Z,00000200,01000000,0001.73,0001.41,0000.44,0000.29,0000.23,0000.11,0000.49,0000.27,0000.59,16.1,22.9,,00.0,0668.8,30.8
2021-05-12T08:52:00Z,00000200,01000000,0001.90,0001.24,0000.72,0000.95,0000.18,0000.19,0001.17,0000.76,0000.53,16.1,22.9,,00.0,0668.8,30.8
2021-05-12T08:53:00Z,00000200,01000000,0001.71,0001.19,0000.75,0000.29,0000.16,-000.16,0000.71,0000.96,0000.44,16.1,22.9,,00.0,0668.8,30.8
2021-05-12T08:54:00Z,00000200,01000000,0002.17,0001.35,0000.94,0000.20,0000.20,0000.19,0001.11,0001.05,0000.70,16.0,22.9,,00.0,0668.8,30.8
2021-05-12T08:55:00Z,00000200,01000000,0001.64,0001.30,0000.62,0000.02,0000.15,0000.21,0001.07,0001.16,0000.78,16.0,22.8,,00.0,0668.8,30.8
2021-05-12T08:56:00Z,00000200,01000000,0001.82,0001.23,0000.98,0000.47,0000.06,0000.17,0001.04,0000.79,0000.90,16.0,22.8,,00.0,0668.8,30.8
2021-05-12T08:57:00Z,00000200,41000000,,,,,,,0000.15,0000.26,0000.57,16.1,22.8,,00.0,0668.8,30.9
2021-05-12T08:58:00Z,00000200,61000000,,,,,,,0000.64,0000.60,-000.07,15.8,23.1,,00.0,0667.8,30.9
2021-05-12T08:59:00Z,00000200,21000000,,,,,,,0000.16,-000.15,0000.28,15.9,23.2,,00.0,0667.8,30.9
